• In Deutschland
  • Länderverzeichnis
  • Für 7 Tage
  • Wassertemperatur
  • Satellitenkarten
  • Wetterkarte
  • Widgets
  • user-avatar
    Anmelden

    Stündliche Wetter Parnamirim

    Heute, 19 Oktober, Freitag

    Zeit Temperatur Niederschläge Wind Luftdruck Luftfeuchtigkeit
    00:00 +25°C° 0 mm 5 m/S 754 mmHg 84%
    01:00 +25°C° 0 mm 4 m/S 753 mmHg 85%
    02:00 +25°C° 0 mm 4 m/S 753 mmHg 85%
    03:00 +25°C° 0 mm 4 m/S 753 mmHg 86%
    04:00 +25°C° 0 mm 4 m/S 753 mmHg 87%
    05:00 +25°C° 0 mm 4 m/S 753 mmHg 84%
    06:00 +26°C° 0 mm 4 m/S 754 mmHg 82%
    07:00 +26°C° 0 mm 4 m/S 754 mmHg 80%
    08:00 +28°C° 0 mm 5 m/S 754 mmHg 70%
    09:00 +30°C° 0 mm 5 m/S 754 mmHg 61%
    10:00 +33°C° 0 mm 6 m/S 754 mmHg 51%
    11:00 +34°C° 0 mm 6 m/S 754 mmHg 48%
    12:00 +35°C° 0 mm 6 m/S 753 mmHg 45%
    13:00 +36°C° 0 mm 6 m/S 753 mmHg 42%
    14:00 +35°C° 0 mm 6 m/S 753 mmHg 45%
    15:00 +34°C° 0 mm 6 m/S 752 mmHg 48%
    16:00 +33°C° 0 mm 7 m/S 752 mmHg 51%
    17:00 +32°C° 0 mm 6 m/S 752 mmHg 59%
    18:00 +29°C° 0 mm 5 m/S 752 mmHg 67%
    19:00 +27°C° 0 mm 5 m/S 752 mmHg 75%
    20:00 +27°C° 0 mm 5 m/S 753 mmHg 78%
    21:00 +26°C° 0 mm 4 m/S 753 mmHg 81%
    22:00 +26°C° 0 mm 4 m/S 754 mmHg 84%
    23:00 +26°C° 0 mm 4 m/S 754 mmHg 85%

    Morgen, 20 Oktober, Samstag

    Zeit Temperatur Niederschläge Wind Luftdruck Luftfeuchtigkeit
    00:00 +25°C° 0 mm 4 m/S 753 mmHg 86%
    01:00 +25°C° 0 mm 4 m/S 753 mmHg 87%
    02:00 +25°C° 0 mm 4 m/S 753 mmHg 88%
    03:00 +25°C° 0 mm 3 m/S 752 mmHg 89%
    04:00 +24°C° 0 mm 3 m/S 752 mmHg 90%
    05:00 +25°C° 0 mm 3 m/S 752 mmHg 87%
    06:00 +25°C° 0 mm 4 m/S 753 mmHg 84%
    07:00 +26°C° 0 mm 4 m/S 753 mmHg 82%
    08:00 +28°C° 0 mm 4 m/S 753 mmHg 71%
    09:00 +30°C° 0 mm 5 m/S 754 mmHg 61%
    10:00 +33°C° 0 mm 5 m/S 754 mmHg 51%
    11:00 +34°C° 0 mm 5 m/S 753 mmHg 48%
    12:00 +35°C° 0 mm 6 m/S 753 mmHg 46%
    13:00 +36°C° 0 mm 6 m/S 752 mmHg 43%
    14:00 +35°C° 0 mm 6 m/S 752 mmHg 46%
    15:00 +34°C° 0 mm 6 m/S 751 mmHg 50%
    16:00 +33°C° 0 mm 6 m/S 751 mmHg 53%
    17:00 +30°C° 0 mm 5 m/S 751 mmHg 62%
    18:00 +29°C° 0 mm 5 m/S 751 mmHg 70%
    19:00 +27°C° 0 mm 4 m/S 752 mmHg 78%
    20:00 +26°C° 0 mm 4 m/S 752 mmHg 81%
    21:00 +26°C° 0 mm 4 m/S 753 mmHg 84%
    22:00 +25°C° 0 mm 4 m/S 754 mmHg 86%
    23:00 +25°C° 0 mm 3 m/S 753 mmHg 88%

    übermorgen, 21 Oktober, Sonntag

    Zeit Temperatur Niederschläge Wind Luftdruck Luftfeuchtigkeit
    00:00 +25°C° 0 mm 3 m/S 753 mmHg 89%
    01:00 +25°C° 0 mm 3 m/S 753 mmHg 90%
    02:00 +25°C° 0 mm 3 m/S 752 mmHg 91%
    03:00 +25°C° 0 mm 3 m/S 752 mmHg 91%
    04:00 +25°C° 0 mm 3 m/S 752 mmHg 91%
    05:00 +25°C° 0 mm 3 m/S 752 mmHg 88%
    06:00 +26°C° 0 mm 4 m/S 753 mmHg 84%
    07:00 +27°C° 0 mm 4 m/S 753 mmHg 81%
    08:00 +28°C° 0 mm 4 m/S 754 mmHg 74%
    09:00 +29°C° 0 mm 4 m/S 754 mmHg 66%
    10:00 +32°C° 0 mm 5 m/S 754 mmHg 59%
    11:00 +33°C° 0 mm 5 m/S 754 mmHg 54%
    12:00 +34°C° 0 mm 5 m/S 753 mmHg 50%
    13:00 +35°C° 0 mm 5 m/S 753 mmHg 46%
    14:00 +35°C° 0 mm 5 m/S 753 mmHg 48%
    15:00 +34°C° 0 mm 5 m/S 752 mmHg 50%
    16:00 +34°C° 0 mm 5 m/S 752 mmHg 52%
    17:00 +32°C° 0 mm 5 m/S 752 mmHg 61%
    18:00 +29°C° 0 mm 4 m/S 753 mmHg 69%
    19:00 +27°C° 0 mm 4 m/S 753 mmHg 78%
    20:00 +27°C° 0 mm 4 m/S 754 mmHg 81%
    21:00 +26°C° 0 mm 4 m/S 754 mmHg 85%
    22:00 +26°C° 0 mm 4 m/S 755 mmHg 88%
    23:00 +25°C° 0 mm 4 m/S 754 mmHg 89%

    22 Oktober, Montag

    Zeit Temperatur Niederschläge Wind Luftdruck Luftfeuchtigkeit
    00:00 +25°C° 0 mm 3 m/S 754 mmHg 91%
    01:00 +25°C° 0 mm 3 m/S 754 mmHg 92%
    02:00 +25°C° 0 mm 3 m/S 753 mmHg 92%
    03:00 +25°C° 0 mm 3 m/S 753 mmHg 93%
    04:00 +25°C° 0 mm 4 m/S 753 mmHg 93%
    05:00 +25°C° 0 mm 4 m/S 753 mmHg 89%
    06:00 +26°C° 0 mm 4 m/S 754 mmHg 86%
    07:00 +27°C° 0 mm 4 m/S 754 mmHg 82%
    08:00 +28°C° 0 mm 5 m/S 755 mmHg 74%
    09:00 +30°C° 0 mm 5 m/S 755 mmHg 65%
    10:00 +33°C° 0 mm 5 m/S 755 mmHg 56%
    11:00 +33°C° 0 mm 5 m/S 755 mmHg 53%
    12:00 +34°C° 0 mm 6 m/S 754 mmHg 50%
    13:00 +35°C° 0 mm 6 m/S 754 mmHg 46%
    14:00 +35°C° 0 mm 6 m/S 754 mmHg 48%
    15:00 +34°C° 0 mm 6 m/S 753 mmHg 49%
    16:00 +34°C° 0 mm 6 m/S 753 mmHg 50%
    17:00 +33°C° 0 mm 6 m/S 753 mmHg 57%
    18:00 +30°C° 0 mm 5 m/S 754 mmHg 63%
    19:00 +28°C° 0 mm 4 m/S 754 mmHg 70%
    20:00 +28°C° 0 mm 4 m/S 755 mmHg 73%
    21:00 +27°C° 0 mm 4 m/S 755 mmHg 77%
    22:00 +27°C° 0 mm 4 m/S 755 mmHg 80%
    23:00 +27°C° 0.1 mm 4 m/S 755 mmHg 82%

    23 Oktober, Dienstag

    Zeit Temperatur Niederschläge Wind Luftdruck Luftfeuchtigkeit
    00:00 +26°C° 0.1 mm 4 m/S 755 mmHg 83%
    01:00 +26°C° 0.1 mm 4 m/S 754 mmHg 85%
    02:00 +26°C° 0.1 mm 5 m/S 754 mmHg 87%
    03:00 +26°C° 0.1 mm 5 m/S 754 mmHg 88%
    04:00 +25°C° 0.1 mm 5 m/S 754 mmHg 90%
    05:00 +26°C° 0.1 mm 5 m/S 754 mmHg 88%
    06:00 +26°C° 0.1 mm 5 m/S 754 mmHg 86%
    07:00 +27°C° 0.1 mm 6 m/S 755 mmHg 84%
    08:00 +28°C° 0.2 mm 6 m/S 755 mmHg 75%
    09:00 +30°C° 0.2 mm 7 m/S 755 mmHg 67%
    10:00 +33°C° 0.2 mm 7 m/S 755 mmHg 59%
    11:00 +34°C° 0.1 mm 7 m/S 755 mmHg 55%
    12:00 +35°C° 0.1 mm 8 m/S 754 mmHg 51%
    13:00 +37°C° 0.1 mm 8 m/S 754 mmHg 48%
    14:00 +35°C° 0 mm 8 m/S 753 mmHg 50%
    15:00 +34°C° 0 mm 8 m/S 753 mmHg 52%
    16:00 +34°C° 0 mm 8 m/S 753 mmHg 54%
    17:00 +32°C° 0 mm 7 m/S 753 mmHg 61%
    18:00 +30°C° 0 mm 7 m/S 754 mmHg 67%
    19:00 +28°C° 0 mm 6 m/S 754 mmHg 74%
    20:00 +28°C° 0 mm 6 m/S 754 mmHg 77%
    21:00 +27°C° 0 mm 6 m/S 755 mmHg 79%
    22:00 +27°C° 0 mm 5 m/S 755 mmHg 82%
    23:00 +26°C° 0 mm 5 m/S 755 mmHg 83%

    24 Oktober, Mittwoch

    Zeit Temperatur Niederschläge Wind Luftdruck Luftfeuchtigkeit
    00:00 +26°C° 0 mm 5 m/S 754 mmHg 85%
    01:00 +26°C° 0 mm 5 m/S 754 mmHg 86%
    02:00 +26°C° 0.1 mm 5 m/S 754 mmHg 87%
    03:00 +26°C° 0.1 mm 5 m/S 753 mmHg 87%
    04:00 +26°C° 0.1 mm 5 m/S 753 mmHg 88%
    05:00 +26°C° 0.1 mm 5 m/S 754 mmHg 85%
    06:00 +27°C° 0.1 mm 6 m/S 754 mmHg 83%
    07:00 +27°C° 0.1 mm 6 m/S 755 mmHg 80%
    08:00 +29°C° 0.1 mm 6 m/S 755 mmHg 71%
    09:00 +30°C° 0.1 mm 7 m/S 755 mmHg 63%
    10:00 +33°C° 0.1 mm 7 m/S 755 mmHg 55%
    11:00 +34°C° 0 mm 7 m/S 755 mmHg 53%
    12:00 +34°C° 0 mm 7 m/S 754 mmHg 51%
    13:00 +35°C° 0 mm 8 m/S 754 mmHg 49%
    14:00 +34°C° 0 mm 7 m/S 753 mmHg 49%
    15:00 +34°C° 0 mm 7 m/S 753 mmHg 50%
    16:00 +33°C° 0 mm 7 m/S 753 mmHg 51%
    17:00 +32°C° 0 mm 7 m/S 753 mmHg 58%
    18:00 +29°C° 0 mm 6 m/S 753 mmHg 64%
    19:00 +28°C° 0 mm 6 m/S 754 mmHg 71%
    20:00 +27°C° 0 mm 5 m/S 754 mmHg 74%
    21:00 +27°C° 0 mm 5 m/S 754 mmHg 77%
    22:00 +26°C° 0 mm 5 m/S 755 mmHg 80%
    23:00 +26°C° 0 mm 5 m/S 754 mmHg 81%
    Mehr zeigen